TimeAKDT,TemperatureF,Dew PointF,Humidity,Sea Level PressureIn,VisibilityMPH,Wind Direction,Wind SpeedMPH,Gust SpeedMPH,PrecipitationIn,Events,Conditions,WindDirDegrees,DateUTC
12:53 AM,48.0,42.1,80,29.68,7.0,SSW,19.6,27.6,0.12,Rain,Rain,210,2013-10-13 08:53:00
1:53 AM,46.9,41.0,80,29.66,5.0,SSW,15.0,23.0,0.20,Rain,Rain,210,2013-10-13 09:53:00
2:53 AM,45.0,43.0,93,29.61,5.0,Calm,Calm,-,0.15,Rain,Rain,0,2013-10-13 10:53:00
3:53 AM,45.0,43.0,93,29.57,8.0,Variable,4.6,-,0.07,Rain,Light Rain,0,2013-10-13 11:53:00
4:53 AM,45.0,43.0,93,29.54,7.0,NNW,8.1,-,0.10,Rain,Light Rain,340,2013-10-13 12:53:00
5:53 AM,45.0,43.0,93,29.53,4.0,Calm,Calm,-,0.17,Rain,Rain,0,2013-10-13 13:53:00
6:53 AM,45.0,44.1,97,29.52,3.0,Calm,Calm,-,0.24,Rain,Heavy Rain,0,2013-10-13 14:53:00
7:53 AM,46.0,42.1,86,29.49,4.0,NNW,11.5,-,0.26,Rain,Heavy Rain,330,2013-10-13 15:53:00
8:53 AM,44.1,42.1,93,29.49,5.0,Calm,Calm,-,0.20,Rain,Rain,0,2013-10-13 16:53:00
9:53 AM,42.1,41.0,96,29.50,4.0,NNE,5.8,-,0.25,Rain,Rain,30,2013-10-13 17:53:00
10:53 AM,42.1,41.0,96,29.50,4.0,NNW,3.5,-,0.15,Rain,Rain,340,2013-10-13 18:53:00
11:40 AM,42.8,41.0,93,29.51,2.5,Calm,Calm,-,0.11,Rain,Rain,0,2013-10-13 19:40:00
11:45 AM,42.8,41.0,93,29.51,3.0,Calm,Calm,-,0.13,Rain,Rain,0,2013-10-13 19:45:00
11:53 AM,41.0,39.9,96,29.52,5.0,Calm,Calm,-,0.14,Rain,Light Rain,0,2013-10-13 19:53:00
12:20 PM,42.8,41.0,93,29.52,10.0,Calm,Calm,-,0.03,Rain,Light Rain,0,2013-10-13 20:20:00
12:53 PM,43.0,39.9,89,29.54,8.0,Calm,Calm,-,0.04,Rain,Light Rain,0,2013-10-13 20:53:00
1:00 PM,42.8,41.0,93,29.54,7.0,Calm,Calm,-,0.01,Rain,Light Rain,0,2013-10-13 21:00:00
1:23 PM,44.6,42.8,93,29.54,10.0,Calm,Calm,-,0.02,Rain,Light Rain,0,2013-10-13 21:23:00
1:53 PM,45.0,41.0,86,29.55,10.0,Calm,Calm,-,0.02,,Overcast,0,2013-10-13 21:53:00
2:53 PM,45.0,41.0,86,29.56,10.0,Calm,Calm,-,N/A,,Mostly Cloudy,0,2013-10-13 22:53:00
3:09 PM,44.6,41.0,87,29.56,10.0,Calm,Calm,-,N/A,,Mostly Cloudy,0,2013-10-13 23:09:00
3:37 PM,44.6,41.0,87,29.57,10.0,SSE,3.5,-,N/A,,Mostly Cloudy,160,2013-10-13 23:37:00
3:53 PM,45.0,42.1,90,29.58,10.0,Calm,Calm,-,N/A,,Mostly Cloudy,0,2013-10-13 23:53:00
4:53 PM,46.0,43.0,89,29.60,10.0,South,6.9,-,N/A,,Mostly Cloudy,190,2013-10-14 00:53:00
5:53 PM,46.9,42.1,83,29.62,10.0,South,8.1,-,0.00,,Overcast,190,2013-10-14 01:53:00
6:53 PM,45.0,42.1,90,29.64,10.0,WSW,3.5,-,0.02,,Mostly Cloudy,240,2013-10-14 02:53:00
7:53 PM,45.0,42.1,90,29.67,5.0,South,5.8,19.6,0.05,Rain,Rain,180,2013-10-14 03:53:00
8:06 PM,44.6,42.8,93,29.68,8.0,SSW,8.1,-,0.01,Rain,Light Rain,200,2013-10-14 04:06:00
8:14 PM,44.6,42.8,93,29.68,8.0,SSW,6.9,-,0.01,Rain,Light Rain,200,2013-10-14 04:14:00
8:24 PM,44.6,42.8,93,29.69,10.0,SSW,4.6,-,0.01,Rain,Light Rain,210,2013-10-14 04:24:00
8:53 PM,44.1,42.1,93,29.69,10.0,Calm,Calm,-,0.02,,Overcast,0,2013-10-14 04:53:00
9:53 PM,44.1,42.1,93,29.71,8.0,Calm,Calm,-,0.01,Rain,Light Rain,0,2013-10-14 05:53:00
10:02 PM,44.6,42.8,93,29.71,4.0,Calm,Calm,-,0.02,Rain,Rain,0,2013-10-14 06:02:00
10:14 PM,44.6,42.8,93,29.72,2.5,SW,5.8,-,0.07,Rain,Heavy Rain,220,2013-10-14 06:14:00
10:30 PM,44.6,42.8,93,29.73,4.0,Calm,Calm,-,0.13,Rain,Rain,0,2013-10-14 06:30:00
10:46 PM,42.8,42.8,100,29.73,2.5,Calm,Calm,-,0.21,Rain,Heavy Rain,0,2013-10-14 06:46:00
10:53 PM,43.0,42.1,97,29.74,2.5,Calm,Calm,-,0.24,Rain,Rain,0,2013-10-14 06:53:00
11:00 PM,42.8,42.8,100,29.73,3.0,Calm,Calm,-,0.02,Rain,Rain,0,2013-10-14 07:00:00
11:20 PM,42.8,41.0,93,29.73,10.0,NNE,3.5,-,0.05,Rain,Light Rain,30,2013-10-14 07:20:00
11:53 PM,43.0,42.1,97,29.75,6.0,Calm,Calm,-,0.06,Rain,Light Rain,0,2013-10-14 07:53:00